Temp
18 19 22 24 28 32 32 32 33 34 34 34 35 35 35 36 36 37 36 36 36 37 37 37 37 38 37 38 40 40 39 40 38 38 40 41 42 41 41 43 44 45 46
16 18 20 21 24 29 30 31 32 32 33 33 34 34 35 35 35 35 35 35 35 35 35 36 36 39 36 37 37 37 38 39 39 36 38 39 39 41 41 40 42 44 43
26 24 21 21 23 25 27 29 30 31 31 33 33 33 33 34 34 35 35 35 35 35 35 34 35 35 35 35 36 35 36 38 37 36 35 37 38 39 39 40 40 40 42
20 23 22 20 21 22 23 26 27 29 29 31 32 33 33 33 34 34 35 34 34 35 35 35 35 35 35 35 36 36 37 36 35 35 35 35 36 38 37 36 36 39 38
18 18 18 18 18 19 21 23 24 27 28 27 30 31 32 33 35 34 34 34 34 34 34 35 36 36 37 38 38 37 36 35 35 34 34 34 35 34 33 35 34 35 38
14 16 16 18 16 16 18 18 22 25 23 25 27 27 29 32 34 37 37 34 34 34 33 34 34 35 36 38 39 39 38 35 34 34 34 32 33 33 34 34 33 33 32
11 11 15 15 17 14 13 15 17 19 19 20 22 24 26 29 33 36 38 36 35 34 34 34 34 37 35 35 36 37 37 38 38 36 33 33 32 34 33 33 33 32 32
11 11 11 12 14 15 15 13 15 16 18 19 21 21 23 26 32 35 36 37 35 34 34 34 33 33 34 34 34 34 35 35 35 36 35 35 35 36 35 35 32 32 33
14 12 12 6 9 12 13 13 15 16 17 18 17 17 19 22 28 32 34 33 34 34 34 34 33 33 33 36 34 32 33 34 36 37 37 37 37 37 36 34 31 28 28
17 17 15 12 6 5 11 12 15 14 16 17 18 16 17 21 26 30 32 30 28 31 33 34 35 34 34 36 34 31 29 32 33 33 33 33 33 33 33 32 31 27 27
18 18 18 18 14 10 10 10 12 13 13 13 14 16 14 16 17 28 32 30 27 27 30 31 33 35 36 37 36 32 31 33 31 31 30 30 31 31 32 31 31 28 26
16 16 17 17 17 19 10 11 9 9 10 11 12 16 19 18 23 28 31 33 32 25 26 29 32 34 35 36 35 33 34 32 30 29 28 29 28 28 28 29 29 30 30
13 14 14 15 18 19 15 12 13 11 11 12 14 16 17 21 21 27 31 33 35 32 27 27 31 34 35 35 35 32 30 28 27 26 26 26 26 27 28 28 29 29 29
11 12 13 14 16 16 19 19 15 14 13 15 15 16 17 19 21 23 23 24 28 30 32 30 32 33 34 28 26 25 25 26 26 25 24 25 26 26 25 26 24 25 24
10 12 13 16 15 16 17 17 15 16 17 15 17 18 17 18 21 26 25 22 21 23 27 23 29 28 23 19 16 15 17 18 20 19 22 22 23 23 23 24 23 23 21
9 13 14 15 15 16 16 17 22 25 27 28 30 28 26 28 30 31 32 33 33 34 28 21 25 23 21 19 17 14 13 17 15 15 16 17 19 19 19 21 21 20 19
9 11 12 15 13 12 14 15 14 20 24 26 27 29 30 31 31 32 33 34 35 33 27 20 22 22 21 17 16 14 14 12 8 12 14 14 14 14 16 18 18 18 18
8 15 16 14 14 14 14 15 16 16 16 18 23 25 27 29 31 32 33 33 29 31 29 23 21 18 17 17 13 11 9 7 10 11 11 11 11 13 13 14 13 12 15
6 8 9 10 12 15 17 17 17 16 16 16 19 22 25 27 29 31 32 27 27 27 27 23 21 19 18 16 13 11 11 9 10 9 9 10 9 11 11 11 11 16 16
1 13 18 15 14 13 13 13 13 14 14 16 17 18 21 22 20 21 23 24 25 26 24 22 21 20 19 16 14 13 11 16 12 9 10 10 10 9 10 9 9 10 11
5 6 15 16 10 9 10 10 12 13 14 15 17 20 26 24 23 21 22 23 24 24 23 23 21 21 19 17 15 14 13 14 12 10 10 10 8 9 9 9 10 8 7
7 7 9 9 8 7 8 11 12 14 14 15 17 18 24 21 20 21 22 22 24 24 24 23 21 20 19 16 15 14 13 12 12 11 11 9 9 10 10 10 10 9 9
8 10 10 7 7 11 8 9 11 14 14 15 16 17 17 17 18 18 19 21 22 22 23 22 21 19 18 17 17 16 14 13 14 13 12 11 11 12 12 12 11 9 10
11 9 7 6 6 7 7 8 8 12 14 13 13 15 15 15 16 17 18 19 21 21 21 20 20 18 16 16 17 17 16 14 13 13 12 12 12 13 15 14 12 9 9
10 9 8 6 5 5 4 6 7 8 9 11 13 14 14 14 14 15 17 18 19 19 18 18 18 17 16 16 16 15 16 21 14 14 12 12 12 11 13 13 11 11 9
10 9 8 6 3 3 4 5 6 7 7 10 12 11 12 13 14 15 17 17 17 18 17 17 17 16 16 16 16 16 22 25 23 24 16 14 13 16 14 12 9 11 10
MSLP
1028.46 1028.31 1027.98 1027.79 1027.58 1027.37 1027.39 1027.31 1027.35 1027.38 1027.43 1027.43 1027.34 1027.20 1027.41 1027.26 1027.53 1027.39 1027.40 1027.34 1027.17 1027.25 1027.54 1027.38 1027.51 1027.43 1027.48 1027.48 1027.66 1027.52 1027.75 1027.48 1027.15 1027.75 1027.74 1027.52 1027.15 1027.28 1027.28 1027.08 1026.48 1026.48 1026.38
1028.64 1028.52 1028.36 1028.09 1027.82 1027.72 1027.76 1027.76 1027.72 1027.64 1027.72 1027.58 1027.60 1027.66 1027.71 1027.68 1027.87 1027.64 1027.53 1027.60 1027.69 1027.78 1027.66 1027.63 1027.65 1027.59 1027.65 1027.89 1027.75 1027.79 1027.76 1027.69 1027.76 1027.73 1027.65 1027.79 1027.80 1027.48 1027.14 1027.05 1026.82 1026.68 1026.49
1028.70 1028.67 1028.56 1028.38 1028.23 1028.07 1027.92 1027.80 1027.87 1027.84 1027.81 1027.81 1027.76 1027.77 1027.95 1028.00 1028.02 1027.92 1027.83 1027.88 1027.92 1027.76 1027.64 1027.64 1027.62 1027.76 1027.87 1028.09 1027.88 1028.13 1028.10 1028.06 1028.12 1027.72 1027.76 1027.97 1027.76 1027.49 1026.95 1026.83 1027.09 1026.62 1026.32
1029.18 1029.04 1028.90 1028.71 1028.58 1028.44 1028.25 1028.01 1027.94 1027.94 1028.02 1028.01 1028.04 1028.01 1028.08 1028.03 1027.95 1027.92 1027.82 1027.95 1027.93 1027.87 1027.81 1027.85 1027.85 1027.92 1027.96 1028.02 1028.01 1028.14 1027.91 1027.95 1027.82 1027.53 1027.46 1027.64 1027.59 1027.39 1027.40 1027.24 1026.72 1026.55 1025.78
1029.55 1029.42 1029.34 1029.06 1028.86 1028.71 1028.56 1028.40 1028.33 1028.07 1028.08 1028.16 1028.09 1028.10 1028.28 1028.05 1027.91 1027.95 1028.05 1028.01 1027.98 1028.03 1028.18 1028.01 1028.04 1028.17 1028.04 1027.85 1027.78 1027.86 1027.88 1027.76 1027.64 1027.56 1027.44 1027.46 1027.47 1027.72 1027.72 1027.54 1026.90 1026.28 1025.43
1030.06 1029.94 1029.74 1029.47 1029.27 1029.18 1029.06 1028.89 1028.66 1028.50 1028.48 1028.38 1028.26 1028.21 1028.16 1027.96 1027.91 1027.64 1027.68 1027.86 1027.97 1028.05 1028.11 1028.07 1028.20 1028.21 1028.12 1027.76 1027.79 1027.62 1027.88 1027.81 1027.51 1027.56 1027.58 1027.54 1027.59 1027.81 1027.64 1027.59 1027.11 1026.56 1025.72
1030.59 1030.43 1030.12 1029.96 1029.83 1029.70 1029.43 1029.20 1029.00 1028.89 1028.83 1028.76 1028.64 1028.50 1028.29 1028.09 1027.81 1027.60 1027.44 1027.61 1027.84 1027.88 1027.95 1028.04 1028.05 1027.86 1028.10 1028.21 1028.20 1027.83 1027.80 1027.79 1027.48 1027.49 1027.80 1027.60 1027.72 1027.51 1027.67 1027.42 1027.11 1026.86 1026.45
1030.90 1030.78 1030.54 1030.39 1030.20 1029.90 1029.67 1029.62 1029.36 1029.14 1029.02 1028.88 1028.73 1028.66 1028.51 1028.18 1027.69 1027.36 1027.14 1027.06 1027.33 1027.50 1027.67 1027.72 1027.83 1027.98 1028.07 1028.20 1028.02 1027.94 1027.80 1027.75 1027.73 1027.79 1027.72 1027.64 1027.47 1027.29 1027.24 1027.11 1027.08 1026.82 1026.26
1030.79 1030.79 1030.70 1030.58 1030.47 1030.26 1030.09 1029.91 1029.61 1029.43 1029.24 1029.04 1028.84 1028.61 1028.49 1028.21 1027.92 1027.48 1027.14 1027.03 1026.97 1027.00 1027.09 1027.29 1027.50 1027.70 1027.62 1027.54 1027.59 1027.58 1027.66 1027.58 1027.46 1027.49 1027.54 1027.41 1027.10 1027.12 1027.25 1027.22 1026.74 1026.88 1026.47
1030.54 1030.41 1030.33 1030.29 1030.31 1030.36 1030.20 1029.95 1029.66 1029.50 1029.31 1029.16 1028.85 1028.66 1028.50 1028.21 1027.64 1027.19 1026.95 1026.95 1026.92 1026.85 1026.83 1026.84 1026.86 1027.08 1027.29 1027.16 1027.15 1027.36 1027.56 1027.37 1027.46 1027.52 1027.69 1027.48 1027.39 1027.28 1027.18 1027.31 1027.44 1027.27 1027.07
1030.32 1030.29 1030.15 1030.03 1029.99 1029.86 1029.77 1029.72 1029.53 1029.36 1029.19 1028.92 1028.71 1028.36 1028.27 1028.34 1027.94 1027.07 1026.59 1026.34 1026.42 1026.52 1026.54 1026.46 1026.52 1026.61 1026.59 1026.61 1026.75 1027.15 1027.20 1027.19 1027.44 1027.55 1027.55 1027.43 1027.23 1027.21 1027.41 1027.56 1027.55 1027.51 1027.19
1030.12 1030.02 1029.91 1029.80 1029.67 1029.40 1029.38 1029.26 1029.21 1029.19 1029.02 1028.69 1028.39 1027.88 1027.49 1027.27 1026.93 1026.45 1025.97 1025.62 1025.59 1025.77 1025.88 1025.98 1026.02 1026.05 1026.07 1026.13 1026.31 1026.71 1026.73 1026.95 1027.36 1027.46 1027.56 1027.52 1027.59 1027.70 1027.77 1027.69 1027.41 1027.49 1027.23
1029.88 1029.74 1029.63 1029.45 1029.18 1029.00 1028.96 1028.87 1028.78 1028.66 1028.50 1028.19 1027.94 1027.44 1026.93 1026.58 1026.25 1025.71 1025.16 1024.83 1024.55 1024.43 1025.07 1025.41 1025.45 1025.53 1025.52 1025.59 1025.79 1026.47 1026.95 1027.32 1027.47 1027.52 1027.55 1027.60 1027.77 1027.85 1027.78 1027.64 1027.44 1027.16 1026.74
1029.55 1029.40 1029.20 1029.00 1028.66 1028.47 1028.32 1028.15 1028.04 1027.83 1027.65 1027.42 1027.09 1026.65 1026.19 1025.88 1025.52 1025.20 1024.97 1024.88 1024.47 1024.07 1023.96 1024.36 1024.50 1024.72 1025.11 1025.86 1026.46 1027.07 1027.53 1027.62 1027.64 1027.71 1027.85 1028.01 1027.96 1027.86 1027.71 1027.59 1027.33 1026.93 1026.46
1029.21 1028.99 1028.75 1028.40 1028.24 1028.03 1027.80 1027.50 1027.28 1026.93 1026.72 1026.32 1025.81 1025.53 1025.27 1024.84 1024.35 1024.05 1023.87 1023.85 1023.80 1024.05 1024.02 1024.18 1024.01 1024.34 1025.06 1026.04 1026.84 1027.52 1028.05 1028.24 1028.16 1028.30 1028.22 1028.17 1028.03 1027.91 1027.73 1027.62 1027.38 1027.11 1026.76
1028.84 1028.50 1028.17 1027.90 1027.73 1027.57 1027.31 1026.78 1026.36 1025.77 1025.17 1024.62 1024.10 1023.81 1023.73 1023.45 1023.09 1022.78 1022.52 1022.44 1022.42 1022.50 1023.11 1023.63 1023.70 1024.21 1024.87 1025.63 1026.49 1027.41 1028.04 1028.13 1028.42 1028.48 1028.51 1028.45 1028.28 1028.26 1028.07 1027.84 1027.73 1027.41 1027.02
1028.42 1028.11 1027.87 1027.40 1027.32 1027.18 1026.90 1026.54 1025.93 1025.19 1024.89 1024.36 1023.85 1023.31 1022.75 1022.43 1022.11 1021.84 1021.71 1021.49 1021.46 1021.76 1021.81 1022.65 1023.23 1023.74 1024.42 1025.25 1026.06 1026.85 1027.36 1028.05 1028.46 1028.43 1028.44 1028.53 1028.59 1028.55 1028.35 1028.04 1027.88 1027.66 1027.19
1028.06 1027.50 1027.01 1026.96 1026.85 1026.63 1026.35 1026.01 1025.65 1025.18 1024.54 1023.89 1023.55 1023.13 1022.59 1022.09 1021.62 1021.25 1020.99 1020.72 1020.60 1020.53 1020.90 1021.66 1022.35 1023.13 1023.96 1024.71 1025.61 1026.42 1027.15 1027.77 1028.13 1028.26 1028.43 1028.55 1028.71 1028.68 1028.56 1028.44 1028.25 1028.07 1027.58
1027.69 1027.39 1027.13 1026.82 1026.51 1026.12 1025.75 1025.43 1025.18 1024.79 1024.32 1023.81 1023.18 1022.55 1022.17 1021.73 1021.23 1020.71 1020.33 1020.19 1020.03 1019.70 1020.14 1020.93 1021.63 1022.38 1023.17 1024.10 1024.99 1025.82 1026.41 1027.04 1027.49 1027.92 1028.21 1028.43 1028.61 1028.70 1028.56 1028.51 1028.43 1028.03 1027.64
1027.16 1026.57 1025.89 1025.83 1025.74 1025.68 1025.51 1025.23 1024.84 1024.41 1023.92 1023.38 1022.87 1022.31 1021.78 1021.42 1020.96 1020.48 1020.18 1019.97 1019.81 1019.64 1019.69 1020.17 1020.80 1021.57 1022.37 1023.34 1024.35 1025.19 1025.96 1026.37 1026.92 1027.47 1027.80 1028.09 1028.32 1028.48 1028.41 1028.37 1028.29 1028.16 1027.88
1026.36 1026.16 1025.69 1025.05 1025.49 1025.42 1025.19 1024.91 1024.53 1024.08 1023.52 1022.95 1022.33 1021.83 1021.14 1020.53 1020.16 1019.94 1019.70 1019.45 1019.31 1019.15 1019.44 1019.68 1020.38 1020.96 1021.75 1022.67 1023.65 1024.49 1025.20 1025.74 1026.29 1026.81 1027.30 1027.65 1027.95 1028.13 1028.10 1028.09 1028.04 1028.02 1027.89
1025.68 1025.54 1025.39 1025.22 1025.18 1025.09 1024.69 1024.41 1024.11 1023.70 1023.21 1022.66 1022.02 1021.52 1020.87 1020.59 1020.30 1019.84 1019.41 1019.09 1018.87 1018.85 1018.90 1019.27 1019.78 1020.44 1021.03 1021.90 1022.81 1023.67 1024.44 1025.10 1025.72 1026.25 1026.72 1027.07 1027.40 1027.56 1027.62 1027.63 1027.63 1027.56 1027.38
1024.81 1024.75 1024.85 1025.02 1025.00 1024.66 1024.47 1024.29 1023.91 1023.48 1022.98 1022.48 1021.94 1021.39 1020.94 1020.55 1020.14 1019.71 1019.31 1018.91 1018.71 1018.65 1018.73 1019.01 1019.41 1020.15 1020.81 1021.56 1022.24 1022.85 1023.61 1024.29 1024.80 1025.44 1026.00 1026.48 1026.76 1026.88 1027.02 1027.04 1027.08 1027.11 1026.96
1024.03 1024.26 1024.54 1024.71 1024.79 1024.69 1024.52 1024.19 1023.85 1023.45 1022.97 1022.44 1021.87 1021.37 1020.95 1020.49 1020.05 1019.62 1019.19 1018.85 1018.67 1018.63 1018.74 1018.91 1019.24 1019.75 1020.53 1021.32 1022.00 1022.61 1023.20 1023.85 1024.46 1024.95 1025.36 1025.83 1026.14 1026.35 1026.38 1026.43 1026.54 1026.67 1026.70
1023.77 1024.06 1024.30 1024.56 1024.72 1024.68 1024.49 1024.17 1023.80 1023.42 1023.01 1022.48 1021.89 1021.43 1020.99 1020.48 1020.00 1019.54 1019.16 1018.91 1018.77 1018.78 1018.90 1019.09 1019.48 1019.99 1020.49 1021.12 1021.69 1022.33 1022.92 1023.37 1024.04 1024.46 1025.02 1025.44 1025.65 1025.70 1025.81 1025.95 1026.10 1026.24 1026.35
1023.59 1023.96 1024.26 1024.52 1024.65 1024.57 1024.35 1024.05 1023.73 1023.37 1022.97 1022.44 1021.89 1021.46 1020.98 1020.48 1019.99 1019.57 1019.22 1019.01 1018.89 1018.87 1018.98 1019.24 1019.73 1020.31 1020.78 1021.17 1021.63 1022.16 1022.50 1022.78 1023.20 1023.63 1024.29 1024.68 1024.95 1024.93 1025.11 1025.37 1025.67 1025.76 1025.91
Wind_Speed
3 3 3 3 4 4 4 4 4 4 4 4 4 4 4 5 4 4 4 4 5 5 3 4 4 3 3 3 2 3 2 2 0 1 1 2 2 6 5 7 6 6 5
2 2 3 2 3 3 3 3 3 3 3 3 3 3 3 4 4 4 4 4 3 3 3 3 3 2 3 2 2 3 2 2 1 1 1 2 3 4 6 7 6 5 7
4 4 3 3 3 3 3 2 2 2 2 2 2 2 2 3 3 3 3 3 2 3 3 3 3 2 3 1 2 1 1 1 1 2 0 1 2 2 6 4 6 7 6
4 4 4 4 4 3 3 2 2 1 0 1 1 0 1 1 1 1 1 1 2 2 2 2 2 2 1 1 1 1 2 1 1 1 1 2 2 3 4 6 7 6 8
5 5 4 4 3 3 4 3 3 2 2 2 2 1 2 2 2 3 3 3 2 1 0 0 1 2 4 3 2 2 2 1 0 1 1 2 3 5 6 5 7 9 9
6 5 5 4 4 4 4 4 3 3 3 3 3 3 3 3 5 6 5 4 4 3 3 2 3 5 3 2 2 1 2 1 2 2 3 4 4 5 4 6 6 8 5
5 5 5 5 5 5 4 4 4 3 2 2 3 3 5 5 9 9 9 5 5 5 5 4 3 2 0 2 4 4 4 6 5 3 5 4 5 4 5 7 7 6 8
4 4 4 5 5 5 5 5 4 3 3 3 3 3 4 5 9 11 11 6 5 6 6 5 5 4 4 5 4 4 4 4 2 2 4 5 6 6 6 5 6 8 8
4 3 3 2 4 4 5 5 3 2 2 2 3 5 4 5 9 10 10 6 7 7 7 6 6 5 6 7 5 4 4 4 4 6 7 9 9 10 7 6 5 6 6
4 4 4 3 2 3 4 5 2 2 3 4 5 3 7 6 10 11 9 5 6 7 7 8 12 8 9 9 5 4 5 5 5 4 3 3 5 6 7 2 3 4 5
4 5 5 5 4 5 4 2 3 4 5 4 5 5 5 6 8 12 12 7 5 5 7 7 7 12 11 11 9 4 5 4 1 2 3 3 3 3 1 2 4 4 5
4 5 6 6 5 5 3 4 4 4 4 5 6 7 5 6 11 12 15 15 13 7 7 6 7 13 13 11 8 5 6 2 0 2 3 2 2 2 3 5 5 5 6
4 5 6 6 6 6 4 5 4 3 4 5 5 6 7 6 6 14 17 18 18 10 7 12 17 17 15 12 10 6 3 2 2 2 2 1 2 3 5 5 5 7 7
5 6 6 6 7 4 4 4 4 4 4 5 6 6 6 7 7 6 6 7 12 10 9 11 12 13 13 8 4 3 2 2 3 3 2 1 2 2 3 4 4 5 6
6 6 6 5 5 5 6 5 5 6 7 6 7 7 7 7 8 11 9 6 6 9 7 3 6 5 6 5 3 3 3 2 3 1 2 1 1 2 2 3 3 5 5
5 5 5 5 4 5 5 7 11 13 15 17 18 14 8 17 20 20 19 17 16 17 7 4 7 6 8 7 6 5 3 5 3 3 2 1 0 1 2 3 3 4 5
6 6 5 6 4 5 5 6 7 8 13 15 16 17 19 17 19 19 20 21 20 15 6 7 8 8 8 7 6 5 5 5 4 3 3 2 2 1 1 2 3 4 4
5 12 5 3 4 5 5 6 6 7 8 8 10 13 15 18 19 19 19 18 9 12 7 9 9 8 7 7 6 6 4 5 4 4 3 3 2 1 0 1 2 2 5
5 5 5 5 5 7 5 6 6 7 7 7 8 10 11 14 16 18 21 9 7 8 6 8 7 8 8 7 6 6 6 6 5 5 4 4 3 2 1 2 2 6 7
5 13 10 5 4 3 4 5 6 6 6 7 7 7 7 9 6 7 6 6 6 6 6 7 8 7 7 7 7 7 7 7 6 5 4 4 3 3 2 2 2 3 3
4 4 10 3 2 3 4 5 5 6 6 7 7 8 15 9 6 6 6 5 5 5 6 7 7 8 7 8 7 7 7 7 7 6 5 5 4 3 3 3 3 3 3
4 4 4 3 2 3 4 4 5 5 6 6 6 7 14 5 5 5 5 5 5 4 5 7 7 8 8 9 8 8 8 7 7 6 6 4 4 4 3 3 3 2 3
4 5 3 2 1 4 3 3 4 5 5 6 6 6 5 5 5 5 6 5 4 4 5 6 7 7 7 7 7 8 9 8 7 7 6 5 5 4 3 3 3 2 2
3 3 3 1 1 1 3 4 4 7 6 5 5 5 5 5 5 6 5 4 3 3 4 5 6 9 8 7 7 6 5 5 5 6 7 5 4 4 3 3 3 3 2
3 3 2 1 2 3 4 4 4 5 5 6 5 5 5 5 5 5 4 3 2 4 4 4 4 7 10 10 9 9 9 14 8 8 5 5 5 6 4 3 3 2 2
4 3 1 1 2 3 3 4 4 4 5 6 5 5 5 5 4 4 3 2 2 3 5 4 6 7 8 7 8 10 14 14 12 15 7 6 6 5 4 5 5 3 2
Wind_Direction
35 31 43 38 44 74 78 69 64 63 51 54 47 54 51 58 47 66 68 63 85 92 84 95 87 78 67 75 88 114 56 18 126 133 343 346 17 357 351 347 357 339 332
24 24 40 24 20 54 72 75 74 80 66 64 50 49 53 55 42 56 63 64 74 89 88 103 92 95 82 60 65 59 107 116 190 263 358 338 292 338 345 342 346 331 327
26 27 30 43 46 46 30 32 52 79 95 73 72 65 41 41 39 43 50 60 77 83 68 66 71 86 114 131 97 121 134 116 172 165 285 268 274 333 348 347 325 318 316
10 22 21 15 6 0 355 359 16 19 172 171 166 28 333 347 340 340 25 76 78 56 37 33 28 7 350 335 197 199 158 168 147 17 337 308 316 342 336 330 330 328 324
17 27 4 351 13 10 10 2 353 342 331 296 276 255 247 257 248 222 230 211 206 190 145 322 190 254 272 256 261 257 242 248 299 315 303 307 328 335 340 331 319 324 324
22 18 8 18 25 18 12 2 354 345 345 328 304 287 276 258 255 258 215 206 209 209 214 221 286 292 290 303 329 337 193 234 311 312 309 296 309 316 325 322 324 335 337
11 7 12 15 22 16 8 11 7 356 342 320 300 293 281 276 274 267 262 210 215 215 215 217 233 227 34 290 300 307 310 295 292 297 281 292 303 313 308 311 314 317 297
2 357 7 8 1 357 13 17 348 342 337 330 313 290 279 281 281 276 269 262 228 223 218 215 224 236 234 233 240 257 266 275 273 280 275 286 277 285 285 310 316 302 293
337 333 334 348 339 346 351 338 325 318 324 316 312 307 296 288 290 281 273 265 257 242 226 220 224 236 247 250 240 255 268 265 276 296 308 308 308 311 323 316 312 316 312
307 310 311 306 286 288 298 301 285 291 296 309 303 271 276 280 294 290 276 254 251 249 234 225 232 229 242 247 235 235 270 282 281 291 298 314 322 319 323 338 318 308 311
289 302 301 304 298 264 279 270 285 297 304 294 288 286 267 252 272 279 275 255 239 234 240 230 223 232 240 236 235 220 246 280 276 300 303 309 319 337 51 344 321 298 290
289 286 288 295 295 292 274 287 288 292 292 293 298 295 277 265 271 270 272 264 242 218 230 229 235 236 239 234 231 209 260 116 244 276 283 293 313 321 323 315 303 284 271
280 279 283 288 290 288 275 274 287 279 277 286 284 285 285 283 266 275 272 268 263 246 213 224 229 234 237 233 220 220 175 203 233 240 251 281 325 321 313 314 313 308 298
271 274 280 276 277 262 281 277 268 277 278 271 273 274 273 278 273 264 255 259 269 272 274 230 226 221 215 184 152 151 186 199 223 229 220 239 281 302 317 335 322 332 321
265 268 268 268 269 281 276 268 256 247 245 257 253 248 256 263 258 265 255 238 235 242 245 239 210 201 158 155 146 162 164 181 189 193 211 245 291 323 337 339 342 336 328
258 264 262 263 260 275 282 293 286 284 284 284 286 277 250 254 264 269 270 266 264 239 206 197 202 186 185 179 180 177 188 188 179 176 174 197 274 325 326 352 346 342 334
242 260 261 271 270 272 278 283 294 301 295 289 289 287 285 281 283 282 272 265 255 245 213 192 202 198 191 183 181 183 188 190 156 180 178 178 178 220 1 9 357 345 344
240 262 263 263 261 265 261 272 280 290 298 298 290 290 284 280 282 280 271 276 268 241 224 193 197 183 184 189 183 181 175 164 177 179 180 179 177 165 162 340 349 318 323
227 239 243 255 255 256 266 285 287 286 284 280 292 293 289 291 294 287 285 282 275 223 195 191 190 183 181 184 182 180 175 175 177 170 183 181 176 188 210 245 287 321 342
228 249 253 233 233 270 281 284 286 283 281 280 281 278 289 295 278 272 265 265 271 260 190 187 182 175 169 171 171 173 177 183 168 179 181 184 184 198 230 259 282 304 312
238 246 265 256 258 273 276 275 277 280 282 283 282 283 289 292 287 257 264 252 241 204 203 183 178 172 163 160 162 169 174 177 179 176 180 184 179 209 221 243 272 261 279
229 243 249 248 271 288 274 263 277 282 286 286 294 292 308 329 300 286 282 261 238 215 196 181 171 175 166 166 168 169 173 178 181 181 186 189 197 218 224 244 264 263 289
220 229 216 230 255 296 330 309 308 306 306 313 310 307 308 306 302 297 292 279 235 206 181 177 166 158 153 161 167 169 172 183 185 175 181 192 204 221 222 244 249 263 281
210 194 197 213 285 220 311 305 312 326 321 309 307 312 312 310 307 303 293 276 231 193 174 167 164 157 151 156 162 165 166 157 160 180 180 184 207 234 237 244 237 239 268
175 176 178 205 273 291 304 307 302 306 307 304 305 311 311 311 309 305 291 256 206 179 150 127 128 149 152 158 159 162 175 182 174 176 175 192 214 219 229 231 221 231 239
155 157 173 272 292 291 293 303 304 304 303 301 303 303 302 306 304 303 299 279 192 156 135 129 140 144 149 152 156 170 187 195 195 197 185 193 211 232 210 214 212 223 222